Date,TemperatureHighF,TemperatureAvgF,TemperatureLowF,DewpointHighF,DewpointAvgF,DewpointLowF,HumidityHigh,HumidityAvg,HumidityLow,PressureMaxIn,PressureMinIn,WindSpeedMaxMPH,WindSpeedAvgMPH,GustSpeedMaxMPH,PrecipitationSumIn
2013-1-5,49.8,49.4,49.1,48.4,48.0,47.7,96,95,93,30.06,30.04,0,0,5,0.17
2013-1-6,50.2,47.4,45.1,48.1,44.5,43.0,96,90,77,30.16,30.02,3,1,7,0.02
2013-2-8,52.6,46.8,40.8,42.5,40.3,37.8,89,78,63,29.94,29.91,3,1,7,0.02
2013-2-19,49.8,47.5,46.1,42.7,40.6,38.9,86,77,69,29.76,29.75,5,3,7,0.37
2013-3-4,61.5,55.9,49.6,46.7,44.7,43.0,79,66,58,30.08,30.02,6,3,10,0.00
2013-3-5,53.5,51.9,50.7,45.8,43.6,42.2,83,73,66,29.86,29.83,13,8,18,0.05
2013-3-6,58.4,52.0,41.1,47.0,41.8,37.1,91,69,48,30.03,29.83,10,3,16,0.09
2013-3-7,62.7,49.7,40.1,47.0,41.0,34.9,94,75,37,29.96,29.81,6,1,10,0.11
2013-3-8,56.9,50.7,44.2,48.2,44.6,42.8,96,80,64,30.02,29.79,12,4,18,0.02
2013-3-29,67.3,67.1,66.9,51.1,50.9,50.7,56,56,56,29.95,29.95,3,3,13,0.00
2013-4-7,54.1,54.1,54.1,51.2,51.2,50.6,90,90,90,29.83,29.83,14,14,18,0.03
2013-4-8,68.9,56.5,47.9,50.1,40.9,27.6,86,58,22,29.95,29.78,14,6,21,0.01
2013-4-10,78.6,58.6,53.8,54.3,46.3,-99.9,91,73,41,30.06,30.01,8,-37,10,0.00
2013-4-21,80.3,80.3,80.3,43.3,43.3,43.3,27,27,27,29.88,29.88,3,3,7,0.00
2013-5-4,88.6,87.4,86.1,40.4,39.2,35.7,20,18,16,29.55,29.53,4,3,6,0.00
2013-5-16,59.8,57.5,56.2,51.5,50.7,50.1,81,78,74,29.98,29.95,4,2,9,0.00
2013-5-27,60.2,53.0,59.0,56.6,4.3,-99.9,91,60,88,29.98,29.96,2,-110,11,0.02
2013-5-28,68.9,61.2,58.3,58.5,56.4,52.1,92,85,56,29.96,29.92,6,1,12,0.00
2013-6-27,82.6,75.2,64.7,64.4,61.4,59.8,85,63,51,30.03,29.97,5,2,10,0.00
2013-6-28,93.8,75.6,60.7,63.9,61.1,57.7,91,64,32,29.99,29.85,5,1,14,0.00
2013-6-29,94.7,75.7,60.7,64.5,59.8,50.8,91,62,24,29.89,29.76,5,1,11,0.00
2013-6-30,84.0,69.0,61.2,62.9,52.8,-99.9,87,64,39,29.81,29.73,4,-35,8,0.00
2013-7-1,92.3,45.0,61.8,63.0,-26.5,-99.9,88,22,32,29.79,29.76,8,-358,12,0.00
2013-8-10,71.5,61.0,58.9,57.8,55.6,54.4,87,83,61,30.02,29.96,4,1,10,0.00